Location: Gleizolles
(44.4833°N, 6.7667°E)
Time: 16:30:19
(UTC+00:00)

Tiros 1 - Pass Details

Date: 30 June 2024
Orbit: 624 x 656 km, 48.4° (Epoch: 13 July)

Event Time Altitude Azimuth Distance (km) Brightness Sun altitude
Rises 03:34:41 0° 284° (WNW) 2,914 10.1 -3.3°
Reaches altitude 10° 03:37:44 10° 264° (W) 2,008 9.2 -2.9°
Maximum altitude 03:40:36 16° 225° (SW) 1,625 8.6 -2.5°
Drops below altitude 10° 03:43:30 10° 186° (S) 2,013 9.3 -2.0°
Sets 03:46:33 0° 166° (SSE) 2,924 10.3 -1.6°
